CW2057 Weather Reports


Display with metric or nautical units.
time (UTC)temp
F
wind
direction
speed
MPH
gust
MPH
rain 1hr
in
rain 24hr
in
rain mn
in
humidity
%
barometer
mb
20260906190628 83 95 1.0 3.0 0.00 0.00 0.00 52 1015.5
20260906190117 82 62 0.0 3.0 0.00 0.00 0.00 52 1015.8
20260906185626 82 46 1.0 3.0 0.00 0.00 0.00 51 1015.8
20260906185136 80 70 0.0 2.0 0.00 0.00 0.00 55 1015.8
20260906184622 78 32 0.0 2.0 0.00 0.00 0.00 60 1015.9
20260906184149 79 79 0.0 8.0 0.00 0.00 0.00 56 1015.8
20260906183617 80 335 0.0 8.0 0.00 0.00 0.00 55 1015.9
20260906183121 81 351 0.0 4.0 0.00 0.00 0.00 50 1015.8
20260906182651 81 353 0.0 2.0 0.00 0.00 0.00 55 1015.7
20260906182118 81 28 0.0 6.0 0.00 0.00 0.00 53 1015.8
20260906181628 83 3 1.0 6.0 0.00 0.00 0.00 52 1015.8
20260906181115 82 226 0.0 3.0 0.00 0.00 0.00 55 1015.8
20260906180625 82 96 0.0 3.0 0.00 0.00 0.00 55 1015.9
20260906180114 82 49 0.0 4.0 0.00 0.00 0.00 56 1015.9
20260906175624 81 95 1.0 5.0 0.00 0.00 0.00 54 1016.0
20260906175154 81 112 0.0 5.0 0.00 0.00 0.00 55 1016.0
20260906174622 81 68 0.0 4.0 0.00 0.00 0.00 58 1016.0
20260906174130 79 86 0.0 3.0 0.00 0.00 0.00 64 1016.0
20260906173620 79 25 0.0 2.0 0.00 0.00 0.00 57 1016.1
20260906173147 81 6 0.0 4.0 0.00 0.00 0.00 56 1016.1
20260906172615 81 338 1.0 4.0 0.00 0.00 0.00 55 1016.1
20260906172124 82 105 0.0 6.0 0.00 0.00 0.00 54 1016.1
20260906171614 82 31 1.0 6.0 0.00 0.00 0.00 54 1016.2
20260906171122 82 7 2.0 6.0 0.00 0.00 0.00 53 1016.2
20260906170627 81 18 1.0 6.0 0.00 0.00 0.00 56 1016.3
20260906170117 81 73 1.0 6.0 0.00 0.00 0.00 56 1016.2
20260906165625 81 47 0.0 6.0 0.00 0.00 0.00 59 1016.2
20260906165113 81 180 0.0 7.0 0.00 0.00 0.00 58 1016.3
20260906164623 81 359 0.0 7.0 0.00 0.00 0.00 57 1016.4
20260906164132 81 281 1.0 4.0 0.00 0.00 0.00 55 1016.3
20260906163642 81 37 0.0 4.0 0.00 0.00 0.00 55 1016.4
20260906163129 82 38 1.0 6.0 0.00 0.00 0.00 59 1016.4
20260906162618 80 351 2.0 6.0 0.00 0.00 0.00 61 1016.4
20260906162127 80 88 1.0 5.0 0.00 0.00 0.00 61 1016.5
20260906161616 80 357 0.0 6.0 0.00 0.00 0.00 59 1016.4
20260906161125 81 2 1.0 6.0 0.00 0.00 0.00 60 1016.4
20260906160614 80 60 1.0 5.0 0.00 0.00 0.00 59 1016.4
20260906160124 80 345 1.0 5.0 0.00 0.00 0.00 58 1016.4
20260906155631 80 313 1.0 4.0 0.00 0.00 0.00 60 1016.5
20260906155119 80 345 0.0 6.0 0.00 0.00 0.00 62 1016.5
20260906154628 80 7 0.0 6.0 0.00 0.00 0.00 60 1016.6
20260906154116 80 340 0.0 4.0 0.00 0.00 0.00 60 1016.6
20260906153626 79 338 1.0 5.0 0.00 0.00 0.00 62 1016.6
20260906153117 78 353 0.0 5.0 0.00 0.00 0.00 66 1016.7
20260906152622 78 16 1.0 5.0 0.00 0.00 0.00 64 1016.5
20260906152131 78 332 1.0 6.0 0.00 0.00 0.00 66 1016.5
20260906151639 79 328 1.0 6.0 0.00 0.00 0.00 63 1016.5
20260906151148 78 347 1.0 6.0 0.00 0.00 0.00 65 1016.5
20260906150654 77 306 3.0 6.0 0.00 0.00 0.00 66 1016.5
20260906150143 77 70 0.0 6.0 0.00 0.00 0.00 65 1016.5
20260906145652 76 92 1.0 6.0 0.00 0.00 0.00 69 1016.5
20260906145115 76 13 2.0 5.0 0.00 0.00 0.00 67 1016.4
20260906144625 76 99 0.0 5.0 0.00 0.00 0.00 68 1016.4
20260906144114 76 82 1.0 4.0 0.00 0.00 0.00 69 1016.5
20260906143148 75 326 1.0 6.0 0.00 0.00 0.00 69 1016.4
20260906142615 75 4 0.0 4.0 0.00 0.00 0.00 70 1016.3
20260906142143 74 350 0.0 4.0 0.00 0.00 0.00 70 1016.3
20260906141630 74 46 1.0 4.0 0.00 0.00 0.00 70 1016.4
20260906141119 74 16 0.0 4.0 0.00 0.00 0.00 71 1016.4
20260906140628 74 24 0.0 4.0 0.00 0.00 0.00 72 1016.4
20260906140117 73 41 1.0 4.0 0.00 0.00 0.00 73 1016.4
20260906135625 73 56 1.0 4.0 0.00 0.00 0.00 73 1016.3
20260906135113 73 53 0.0 3.0 0.00 0.00 0.00 72 1016.3
20260906134621 73 296 0.0 4.0 0.00 0.00 0.00 74 1016.3
20260906134130 73 84 1.0 4.0 0.00 0.00 0.00 74 1016.3
20260906133639 72 165 0.0 2.0 0.00 0.00 0.00 75 1016.2
20260906133126 72 165 0.0 4.0 0.00 0.00 0.00 75 1016.2
20260906132615 72 165 1.0 4.0 0.00 0.00 0.00 74 1016.2
20260906132125 71 33 0.0 2.0 0.00 0.00 0.00 75 1016.2
20260906131613 71 165 0.0 1.0 0.00 0.00 0.00 77 1016.2
20260906131122 70 165 0.0 4.0 0.00 0.00 0.00 78 1016.2
20260906130631 70 3 2.0 5.0 0.00 0.00 0.00 77 1016.2
20260906130121 70 20 1.0 5.0 0.00 0.00 0.00 77 1016.1
20260906125625 70 18 0.0 3.0 0.00 0.00 0.00 77 1016.1
20260906125113 70 360 0.0 2.0 0.00 0.00 0.00 79 1016.1
20260906124622 69 18 0.0 2.0 0.00 0.00 0.00 79 1016.1
20260906124130 68 356 1.0 2.0 0.00 0.00 0.00 80 1016.1
20260906123618 68 360 0.0 2.0 0.00 0.00 0.00 81 1016.1
20260906123127 68 17 1.0 3.0 0.00 0.00 0.00 81 1016.1
20260906122616 67 23 1.0 3.0 0.00 0.00 0.00 83 1016.1
20260906122125 66 4 0.0 2.0 0.00 0.00 0.00 85 1016.0
20260906121614 64 4 0.0 2.0 0.00 0.00 0.00 87 1016.0
20260906121123 64 10 0.0 1.0 0.00 0.00 0.00 87 1015.9
20260906120652 63 352 0.0 2.0 0.00 0.00 0.00 87 1015.8
20260906120121 63 352 0.0 2.0 0.00 0.00 0.00 88 1015.9
20260906115629 63 353 0.0 0.0 0.00 0.00 0.00 88 1015.8
20260906115138 63 353 0.0 0.0 0.00 0.00 0.00 88 1015.8
20260906114626 62 353 0.0 0.0 0.00 0.00 0.00 88 1015.8
20260906114116 62 353 0.0 0.0 0.00 0.00 0.00 88 1015.8
20260906113624 62 353 0.0 0.0 0.00 0.00 0.00 88 1015.8
20260906113114 62 353 0.0 0.0 0.00 0.00 0.00 89 1015.7
20260906112639 61 353 0.0 0.0 0.00 0.00 0.00 89 1015.6
20260906112127 61 353 0.0 0.0 0.00 0.00 0.00 89 1015.6
20260906111616 61 353 0.0 0.0 0.00 0.00 0.00 89 1015.4
20260906111125 61 353 0.0 0.0 0.00 0.00 0.00 89 1015.4
20260906110614 61 353 0.0 0.0 0.00 0.00 0.00 88 1015.4
20260906110122 61 353 0.0 0.0 0.00 0.00 0.00 88 1015.3
20260906105632 61 353 0.0 0.0 0.00 0.00 0.00 88 1015.3
20260906105119 61 353 0.0 0.0 0.00 0.00 0.00 89 1015.2
20260906104629 61 353 0.0 0.0 0.00 0.00 0.00 89 1015.1
20260906104118 61 353 0.0 0.0 0.00 0.00 0.00 88 1015.1
20260906103627 61 353 0.0 0.0 0.00 0.00 0.00 89 1015.0
20260906103116 61 353 0.0 0.0 0.00 0.00 0.00 89 1014.9
20260906102645 61 353 0.0 0.0 0.00 0.00 0.00 89 1014.9
20260906102114 61 353 0.0 0.0 0.00 0.00 0.00 89 1014.7
20260906101621 61 353 0.0 0.0 0.00 0.00 0.00 88 1014.7
20260906101131 61 353 0.0 0.0 0.00 0.00 0.00 88 1014.6
20260906100620 61 353 0.0 0.0 0.00 0.00 0.00 89 1014.6
20260906100129 61 353 0.0 0.0 0.00 0.00 0.00 88 1014.5
20260906095619 61 353 0.0 0.0 0.00 0.00 0.00 88 1014.4
20260906095129 61 353 0.0 0.0 0.00 0.00 0.00 88 1014.5
20260906094618 61 353 0.0 0.0 0.00 0.00 0.00 88 1014.5
20260906094143 61 353 0.0 0.0 0.00 0.00 0.00 88 1014.4
20260906093652 61 353 0.0 0.0 0.00 0.00 0.00 88 1014.5
20260906093119 61 353 0.0 0.0 0.00 0.00 0.00 88 1014.3
20260906092629 61 353 0.0 0.0 0.00 0.00 0.00 88 1014.3
20260906092138 61 353 0.0 0.0 0.00 0.00 0.00 88 1014.2
20260906091626 61 353 0.0 0.0 0.00 0.00 0.00 88 1014.2
20260906091114 61 353 0.0 0.0 0.00 0.00 0.00 88 1014.2
20260906090643 61 353 0.0 0.0 0.00 0.00 0.00 88 1014.1
20260906090132 61 353 0.0 0.0 0.00 0.00 0.00 88 1014.0
20260906085622 61 353 0.0 0.0 0.00 0.00 0.00 88 1013.8
20260906085131 61 353 0.0 0.0 0.00 0.00 0.00 88 1013.9
20260906084641 62 353 0.0 0.0 0.00 0.00 0.00 87 1013.8
20260906084128 62 353 0.0 0.0 0.00 0.00 0.00 87 1014.0
20260906083617 62 353 0.0 0.0 0.00 0.00 0.00 87 1014.0
20260906083122 62 353 0.0 0.0 0.00 0.00 0.00 88 1014.0
20260906082632 62 353 0.0 0.0 0.00 0.00 0.00 88 1014.0
20260906082121 62 353 0.0 0.0 0.00 0.00 0.00 89 1014.0
20260906081631 61 353 0.0 0.0 0.00 0.00 0.00 88 1013.9
20260906081138 62 353 0.0 0.0 0.00 0.00 0.00 87 1013.9
20260906080626 62 353 0.0 0.0 0.00 0.00 0.00 87 1013.7
20260906080135 62 353 0.0 0.0 0.00 0.00 0.00 87 1013.7
20260906075644 62 353 0.0 0.0 0.00 0.00 0.00 87 1013.5
20260906075131 62 353 0.0 0.0 0.00 0.00 0.00 88 1013.7
20260906074621 62 353 0.0 0.0 0.00 0.00 0.00 87 1013.5
20260906074130 63 353 0.0 0.0 0.00 0.00 0.00 86 1013.6
20260906073620 63 353 0.0 0.0 0.00 0.00 0.00 87 1013.5
20260906073130 63 353 0.0 0.0 0.00 0.00 0.00 87 1013.5
20260906072617 63 353 0.0 0.0 0.00 0.00 0.00 86 1013.5
20260906072127 63 353 0.0 0.0 0.00 0.00 0.00 87 1013.6
20260906071616 63 353 0.0 0.0 0.00 0.00 0.00 86 1013.5
20260906071126 63 353 0.0 0.0 0.00 0.00 0.00 87 1013.4
20260906070615 63 353 0.0 0.0 0.00 0.00 0.00 87 1013.3
20260906070140 63 353 0.0 0.0 0.00 0.00 0.00 88 1013.4
20260906065649 63 353 0.0 0.0 0.00 0.00 0.00 87 1013.5
20260906065118 64 353 0.0 0.0 0.00 0.00 0.00 86 1013.5
20260906064626 64 353 0.0 0.0 0.00 0.00 0.00 87 1013.5
20260906064116 64 353 0.0 0.0 0.00 0.00 0.00 86 1013.6
20260906063624 64 353 0.0 0.0 0.00 0.00 0.00 87 1013.7
20260906063131 64 353 0.0 0.0 0.00 0.00 0.00 86 1013.6
20260906062621 64 353 0.0 0.0 0.00 0.00 0.00 87 1013.6
20260906062150 64 353 0.0 0.0 0.00 0.00 0.00 87 1013.7
20260906061619 64 353 0.0 0.0 0.00 0.00 0.00 87 1013.7
20260906061127 64 353 0.0 0.0 0.00 0.00 0.00 87 1013.6
20260906060617 64 353 0.0 0.0 0.00 0.00 0.00 87 1013.5
20260906060127 64 353 0.0 0.0 0.00 0.00 0.00 88 1013.5
20260906055615 64 353 0.0 0.0 0.00 0.00 0.00 88 1013.5
20260906055144 64 353 0.0 0.0 0.00 0.00 0.00 88 1013.5
20260906054629 64 353 0.0 0.0 0.00 0.00 0.00 88 1013.5
20260906054117 64 353 0.0 0.0 0.00 0.00 0.00 88 1013.7
20260906053627 64 353 0.0 0.0 0.00 0.00 0.00 88 1013.8
20260906053116 64 353 0.0 0.0 0.00 0.00 0.00 88 1013.7
20260906052624 65 353 0.0 0.0 0.00 0.00 0.00 87 1013.7
20260906052113 65 353 0.0 0.0 0.00 0.00 0.00 87 1013.8
20260906051623 65 353 0.0 0.0 0.00 0.00 0.00 87 1013.8
20260906051152 65 353 0.0 0.0 0.00 0.00 0.00 87 1013.8
20260906050620 65 353 0.0 0.0 0.00 0.00 0.00 87 1013.9
20260906050147 65 353 0.0 0.0 0.00 0.00 0.00 87 1013.9
20260906045616 65 353 0.0 0.0 0.00 0.00 0.00 87 1013.9
20260906045126 65 353 0.0 0.0 0.00 0.00 0.00 88 1013.9
20260906044614 65 353 0.0 0.0 0.00 0.00 0.00 88 1014.0
20260906044123 65 353 0.0 0.0 0.00 0.00 0.00 87 1014.0
20260906043633 65 353 0.0 0.0 0.00 0.00 0.00 87 1014.1
20260906043120 65 353 0.0 0.0 0.00 0.00 0.00 87 1014.1
20260906042630 65 353 0.0 0.0 0.00 0.00 0.00 87 1014.0
20260906042118 65 353 0.0 0.0 0.00 0.00 0.00 87 1013.9
20260906041627 66 353 0.0 0.0 0.00 0.00 0.00 86 1014.0
20260906041116 66 353 0.0 0.0 0.00 0.00 0.00 87 1014.0
20260906040622 66 353 0.0 0.0 0.00 0.00 0.00 87 1013.9
20260906040130 66 353 0.0 0.0 0.00 0.00 0.00 87 1013.9
20260906035620 66 353 0.0 0.0 0.00 0.00 0.00 87 1013.9
20260906035129 66 353 0.0 0.0 0.00 0.00 0.00 88 1013.9
20260906034638 66 353 0.0 0.0 0.00 0.00 0.00 88 1013.9
20260906034125 66 353 0.0 0.0 0.00 0.00 0.00 87 1014.1
20260906033615 66 353 0.0 0.0 0.00 0.00 0.00 86 1014.1
20260906033124 67 353 0.0 0.0 0.00 0.00 0.00 84 1014.4
20260906032614 67 353 0.0 0.0 0.00 0.00 0.00 86 1014.3
20260906032123 67 353 0.0 0.0 0.00 0.00 0.00 86 1014.2
20260906031653 67 353 0.0 0.0 0.00 0.00 0.00 86 1014.0
20260906031120 67 353 0.0 0.0 0.00 0.00 0.00 84 1014.0
20260906030628 68 353 0.0 0.0 0.00 0.00 0.00 84 1014.0
20260906030118 67 353 0.0 0.0 0.00 0.00 0.00 85 1014.0
20260906025628 68 353 0.0 0.0 0.00 0.00 0.00 84 1013.9
20260906025117 68 353 0.0 0.0 0.00 0.00 0.00 83 1013.8
20260906024625 68 353 0.0 0.0 0.00 0.00 0.00 85 1013.9
20260906024114 67 353 0.0 0.0 0.00 0.00 0.00 85 1013.8
20260906023622 68 353 0.0 0.0 0.00 0.00 0.00 85 1013.9
20260906023128 68 353 0.0 0.0 0.00 0.00 0.00 84 1013.9
20260906022617 68 353 0.0 0.0 0.00 0.00 0.00 83 1014.0
20260906022127 68 353 0.0 0.0 0.00 0.00 0.00 83 1013.9
20260906021615 69 353 0.0 0.0 0.00 0.00 0.00 83 1013.7
20260906021125 68 353 0.0 0.0 0.00 0.00 0.00 83 1013.8
20260906020614 69 353 0.0 0.0 0.00 0.00 0.00 82 1013.7
20260906020124 69 353 0.0 0.0 0.00 0.00 0.00 81 1013.7
20260906015632 69 353 0.0 0.0 0.00 0.00 0.00 80 1013.7
20260906015142 70 353 0.0 0.0 0.00 0.00 0.00 79 1013.7
20260906014630 70 353 0.0 0.0 0.00 0.00 0.00 79 1013.5
20260906014119 70 353 0.0 0.0 0.00 0.00 0.00 80 1013.4
20260906013628 70 353 0.0 0.0 0.00 0.00 0.00 80 1013.4
20260906013118 70 353 0.0 0.0 0.00 0.00 0.00 80 1013.3
20260906012627 69 353 0.0 0.0 0.00 0.00 0.00 81 1013.4
20260906012117 69 353 0.0 0.0 0.00 0.00 0.00 80 1013.2
20260906011645 69 353 0.0 0.0 0.00 0.00 0.00 80 1013.3
20260906011114 70 353 0.0 0.0 0.00 0.00 0.00 79 1013.2
20260906010621 70 353 0.0 0.0 0.00 0.00 0.00 78 1013.3
20260906010126 71 353 0.0 0.0 0.00 0.00 0.00 77 1013.2
20260906005615 72 353 0.0 0.0 0.00 0.00 0.00 76 1013.2
20260906005125 72 353 0.0 0.0 0.00 0.00 0.00 78 1013.1
20260906004654 72 353 0.0 0.0 0.00 0.00 0.00 78 1013.0
20260906004121 72 353 0.0 0.0 0.00 0.00 0.00 77 1013.0
20260906003630 72 353 0.0 0.0 0.00 0.00 0.00 76 1012.9
20260906003120 72 353 0.0 0.0 0.00 0.00 0.00 75 1012.9
20260906002629 72 353 0.0 0.0 0.00 0.00 0.00 75 1013.0
20260906002136 72 353 0.0 0.0 0.00 0.00 0.00 74 1013.1
20260906001625 72 353 0.0 0.0 0.00 0.00 0.00 72 1012.9
20260906001154 73 353 0.0 0.0 0.00 0.00 0.00 73 1012.8
20260906000622 73 353 0.0 0.0 0.00 0.00 0.00 71 1012.9
20260906000128 73 353 0.0 0.0 0.00 0.00 0.00 70 1012.8
20260905235617 73 353 0.0 0.0 0.00 0.00 0.00 70 1012.7
20260905235126 74 165 0.0 0.0 0.00 0.00 0.00 69 1012.6
20260905234615 74 353 0.0 0.0 0.00 0.00 0.00 69 1012.6
20260905234124 74 353 0.0 0.0 0.00 0.00 0.00 69 1012.6
20260905233626 75 353 0.0 0.0 0.00 0.00 0.00 68 1012.6
20260905233115 75 353 0.0 0.0 0.00 0.00 0.00 68 1012.4
20260905232624 75 353 0.0 0.0 0.00 0.00 0.00 67 1012.5
20260905232133 76 353 0.0 0.0 0.00 0.00 0.00 67 1012.4
20260905231621 76 353 0.0 0.0 0.00 0.00 0.00 66 1012.4
20260905231130 76 353 0.0 1.0 0.00 0.00 0.00 67 1012.3
20260905230620 77 353 0.0 1.0 0.00 0.00 0.00 66 1012.4
20260905230149 77 51 0.0 1.0 0.00 0.00 0.00 66 1012.4
20260905225636 77 53 0.0 4.0 0.00 0.00 0.00 65 1012.3
20260905225125 77 28 1.0 4.0 0.00 0.00 0.00 66 1012.3
20260905224614 77 89 0.0 0.0 0.00 0.00 0.00 68 1012.2
20260905224124 77 147 0.0 0.0 0.00 0.00 0.00 68 1012.3
20260905223632 77 80 0.0 0.0 0.00 0.00 0.00 67 1012.3
20260905223123 77 80 0.0 0.0 0.00 0.00 0.00 68 1012.2
20260905222632 77 80 0.0 0.0 0.00 0.00 0.00 68 1012.2
20260905222121 77 80 0.0 0.0 0.00 0.00 0.00 68 1012.2
20260905221630 77 80 0.0 0.0 0.00 0.00 0.00 67 1012.2
20260905221118 78 80 0.0 2.0 0.00 0.00 0.00 68 1012.1
20260905220628 78 80 0.0 3.0 0.00 0.00 0.00 67 1012.0
20260905220116 79 14 0.0 3.0 0.00 0.00 0.00 64 1012.0
20260905215622 79 43 0.0 6.0 0.00 0.00 0.00 65 1012.0
20260905215132 79 21 1.0 6.0 0.00 0.00 0.00 63 1011.9
20260905214621 79 43 0.0 2.0 0.00 0.00 0.00 63 1011.7
20260905214130 80 88 1.0 3.0 0.00 0.00 0.00 64 1011.6
20260905213618 80 18 0.0 3.0 0.00 0.00 0.00 62 1011.6
20260905213148 80 19 0.0 2.0 0.00 0.00 0.00 62 1011.6
20260905212636 80 14 0.0 3.0 0.00 0.00 0.00 65 1011.4
20260905212125 80 5 1.0 3.0 0.00 0.00 0.00 63 1011.4
20260905211614 80 116 0.0 3.0 0.00 0.00 0.00 64 1011.3
20260905211124 80 293 0.0 2.0 0.00 0.00 0.00 66 1011.3
20260905210613 80 8 0.0 5.0 0.00 0.00 0.00 63 1011.3
20260905210122 80 12 0.0 4.0 0.00 0.00 0.00 63 1011.3
20260905205631 81 32 1.0 4.0 0.00 0.00 0.00 61 1011.3
20260905205119 82 305 0.0 3.0 0.00 0.00 0.00 61 1011.2
20260905204627 82 43 0.0 3.0 0.00 0.00 0.00 62 1011.2
20260905204137 82 18 0.0 5.0 0.00 0.00 0.00 61 1011.3
20260905203624 82 303 0.0 5.0 0.00 0.00 0.00 60 1011.4
20260905203128 82 92 0.0 1.0 0.00 0.00 0.00 63 1011.4
20260905202617 82 355 0.0 5.0 0.00 0.00 0.00 61 1011.5
20260905202145 82 347 0.0 5.0 0.00 0.00 0.00 61 1011.5
20260905201613 82 3 0.0 4.0 0.00 0.00 0.00 60 1011.6
20260905201122 82 27 1.0 5.0 0.00 0.00 0.00 61 1011.6
20260905200631 81 104 0.0 2.0 0.00 0.00 0.00 62 1011.6
20260905200121 80 328 0.0 2.0 0.00 0.00 0.00 64 1011.6
20260905195651 80 331 0.0 0.0 0.00 0.00 0.00 67 1011.7
20260905195118 80 2 0.0 0.0 0.00 0.00 0.00 65 1011.7
20260905194628 80 359 0.0 0.0 0.00 0.00 0.00 65 1011.7
20260905194117 80 105 0.0 0.0 0.00 0.00 0.00 64 1011.7
20260905193627 80 3 0.0 0.0 0.00 0.00 0.00 66 1011.8
20260905193114 80 63 0.0 0.0 0.00 0.00 0.00 65 1011.9
20260905192623 81 64 0.0 4.0 0.00 0.00 0.00 63 1011.9
20260905192131 82 355 1.0 4.0 0.00 0.00 0.00 62 1012.0
20260905191620 81 40 0.0 2.0 0.00 0.00 0.00 62 1011.9
20260905191129 81 349 0.0 2.0 0.00 0.00 0.00 62 1012.0